User: anonymous
Location: Columbus
(29.5618°N, 96.6770°W)
Time: 16:02:27
(UTC-05:00)
Language:

Cosmos 2056 Rocket - Orbit

View from above orbital plane
View from above orbital plane
View from above satellite
View from above satellite

Ground track
Ground track

The orbit data is extracted from the following two-line orbital elements,

1 20433U 90004B   14244.07453450  .00000178  00000-0  69891-4 0  8002
2 20433 074.0354 068.5529 0040243 086.2507 049.6871 14.35661287288784
Epoch (UTC): 01 September 2014 01:47:19
Eccentricity: 0.0040243
inclination: 74.0354°
perigee height: 744 km
apogee height: 801 km
right ascension of ascending node: 68.5529°
argument of perigee: 86.2507°
revolutions per day: 14.35661287
mean anomaly at epoch: 49.6871°
orbit number at epoch: 28878

The dashed part of the orbit path shows where the satellite is in the earth's shadow,  

DLR